sat.trackr.live / text

‹ back to catalog

TRANSPORTER-12 OBJECT AZ

NORAD 62656 · 2025-009AZ

PAYLOAD ACTIVE UNKNOWN

§ Identity

Operator
Country
TBD
Launch date
2025-01-14
Launch site
AFWTR
Launch vehicle
Mass (kg)
RCS (m²)

External: N2YO · Heavens-Above · Gunter

§ Orbital elements

Epoch: 2026-05-25T03:47:39.211872Z

Period
93.97 min
Inclination
97.3940°
Eccentricity
0.0002547
Mean motion
15.32345875 rev/d
Perigee alt
467.1 km
Apogee alt
470.6 km
Semi-major
6,847.0 km
B*
4.1826e-4
RAAN
228.2598°
Arg perigee
87.9629°
Mean anomaly
272.1904°
Rev number
7,549

§ Raw data

TRANSPORTER-12 OBJECT AZ1 62656U 25009AZ  26145.15809273  .00012994  00000+0  41826-3 0  99922 62656  97.3940 228.2598 0002547  87.9629 272.1904 15.32345875 75497

JSON: /api/v1/satellites/62656 · /tle

For live sub-satellite position, see the globe view (requires WebGL).

§ Visibility from observer

Set your observer location to see the next 7 days of passes ≥ 10°. The values pass through the URL so the page stays shareable.

No JS? Fill the form by hand. The geolocation button needs JavaScript.